Home > Time Zones > World Clock > Weather > France > Pau > Past weeks

Flag for France Weather past 2 weeks in Pau, France

Now
70 °F

Mostly cloudy.


Feels Like: 70 °F
Forecast: 58 / 81 °F
Wind: 5 mph from Northwest

Location: Pau Airport

Current Time: Jul 30, 2014 at 10:15:01 PM

Latest Report: Jul 30, 2014 at 9:30 PM


Visibility: N/A

Pressure: 30.04 "Hg

Humidity: 78%

Dew point: 63 °F

Location of PauLocation

Historic Weather in Pau — Graph

°F

Pau temperature yesterday

Maximum temperature yesterday: 73 °F (at 4:30 PM)
Minimum temperature yesterday: 59 °F (at 4:30 AM)
Average temperature yesterday: 65 °F

Past Weeks' High & Low Weather Summary

 TemperatureHumidityPressure
High95 °F (Jul 17, 2:30 PM)100% (Jul 16, 6:30 AM)30.21 "Hg (Jul 16, 6:30 AM)
Low55 °F (Jul 22, 5:30 AM)32% (Jul 17, 2:30 PM)29.71 "Hg (Jul 18, 7:30 PM)
Average70 °F79%30.02 "Hg
* Reported Jul 15 9:00 PM — Jul 30 9:00 PM, Pau, Weather by CustomWeather, © 2014

Note: Actual official high and low records may vary slightly from our data, if they occured in-between our weather recording intervals... More about our weather records

Advertising

Pau weather history for previous 24 hours

 ConditionsComfort  
Time TempWeatherWind HumidityBarometerVisibility
9:00 PM
Jul 30
72 °FPartly sunny.5 mph73%30.04 "HgN/A
8:30 PM72 °FPartly sunny.5 mph69%30.04 "HgN/A
8:00 PM73 °FPartly sunny.3 mph65%30.04 "HgN/A
7:30 PM73 °FPartly sunny.3 mph65%30.04 "HgN/A
7:00 PM75 °FPartly sunny.2 mph61%30.04 "HgN/A
6:30 PM75 °FPartly sunny.No wind61%30.04 "HgN/A
6:00 PM73 °FPartly sunny.3 mph65%30.04 "HgN/A
5:30 PM75 °FPartly sunny.3 mph61%30.04 "HgN/A
5:00 PM75 °FPartly sunny.2 mph57%30.04 "HgN/A
4:30 PM73 °FBroken clouds.3 mph65%30.04 "HgN/A
4:00 PM73 °FBroken clouds.5 mph65%30.07 "HgN/A
3:30 PM72 °FBroken clouds.3 mph65%30.07 "HgN/A
3:00 PM72 °FPartly sunny.3 mph69%30.07 "HgN/A
2:30 PM73 °FBroken clouds.5 mph61%30.07 "HgN/A
2:00 PM73 °FPartly sunny.2 mph65%30.07 "HgN/A
1:30 PM72 °FPartly sunny.2 mph69%30.07 "HgN/A
1:11 PM72 °FPartly sunny.2 mph69%30.07 "HgN/A
12:30 PM70 °FPartly sunny.2 mph73%30.07 "HgN/A
12:00 PM70 °FPartly sunny.1 mph69%30.07 "HgN/A
11:30 AM68 °FPartly sunny.3 mph73%30.07 "HgN/A
11:00 AM66 °FPartly sunny.2 mph73%30.07 "HgN/A
10:30 AM66 °FPartly sunny.2 mph73%30.07 "HgN/A
10:00 AM64 °FPartly sunny.1 mph83%30.07 "HgN/A
9:30 AM64 °FPartly sunny.2 mph83%30.07 "HgN/A
8:30 AM63 °FBroken clouds.2 mph83%30.07 "HgN/A
8:00 AM63 °FBroken clouds.2 mph88%30.07 "HgN/A
7:00 AM63 °FPassing clouds.1 mph83%30.07 "HgN/A
6:30 AM63 °FPassing clouds.1 mph83%30.07 "HgN/A
6:00 AM63 °FPassing clouds.No wind83%30.07 "HgN/A
5:30 AM63 °FPassing clouds.No wind83%30.07 "HgN/A
5:00 AM63 °FOvercast.No wind83%30.07 "HgN/A
4:30 AM63 °FMostly cloudy.No wind83%30.07 "HgN/A
4:00 AM63 °FPartly cloudy.2 mph83%30.07 "HgN/A
3:30 AM63 °FMostly cloudy.3 mph83%30.09 "HgN/A
3:00 AM63 °FMostly cloudy.3 mph83%30.09 "HgN/A
2:30 AM63 °FMostly cloudy.3 mph83%30.09 "HgN/A
2:00 AM63 °FOvercast.6 mph83%30.09 "HgN/A
1:30 AM63 °FMostly cloudy.3 mph83%30.09 "HgN/A
1:00 AM63 °FOvercast.6 mph83%30.09 "HgN/A
12:30 AM63 °FOvercast.3 mph83%30.12 "HgN/A
12:00 AM63 °FOvercast.6 mph83%30.12 "HgN/A
11:30 PM
Jul 29
64 °FOvercast.6 mph78%30.12 "HgN/A
11:00 PM64 °FOvercast.7 mph78%30.12 "HgN/A
10:30 PM64 °FOvercast.7 mph78%30.09 "HgN/A
10:00 PM63 °FPartly sunny.8 mph83%30.09 "HgN/A
Weather by CustomWeather, © 2014

See weather overviewHow to use our weather pages